Air Quality Table

TIMESTAMP NO2 SO2 PM10 PM2.5 CO TEMP HUM AIRPRES WS WD NO
2022-01-24 18:00 11.18 µg/m3 0.24 µg/m3 9.46 µg/m3 3.66 µg/m3 0.3 mg/m3 11.34 °C 77.32 % 1,022.11 mbar 1.1 m/s 278.39 Deg 1.84 µg/m3
2022-01-24 17:00 11.06 µg/m3 0.35 µg/m3 9.17 µg/m3 3.41 µg/m3 0.34 mg/m3 11.98 °C 69.3 % 1,021.70 mbar 1.67 m/s 254.98 Deg 2.27 µg/m3
2022-01-24 16:00 4.92 µg/m3 0.21 µg/m3 8.92 µg/m3 3.09 µg/m3 0.27 mg/m3 12.2 °C 65.95 % 1,021.67 mbar 2.55 m/s 262.88 Deg 1.13 µg/m3
2022-01-24 15:00 8.01 µg/m3 0.25 µg/m3 9.05 µg/m3 3.06 µg/m3 0.25 mg/m3 12.51 °C 62.04 % 1,021.52 mbar 2.46 m/s 309.87 Deg 2.23 µg/m3
2022-01-24 14:00 2.9 µg/m3 0.2 µg/m3 9.46 µg/m3 3.17 µg/m3 0.27 mg/m3 12.63 °C 65.67 % 1,021.74 mbar 2.07 m/s 262.19 Deg 1.06 µg/m3
2022-01-24 13:00 3.93 µg/m3 0.29 µg/m3 9.2 µg/m3 3.05 µg/m3 0.26 mg/m3 13.15 °C 58.29 % 1,022.40 mbar 2.33 m/s 336.63 Deg 1.35 µg/m3
2022-01-24 12:00 6.49 µg/m3 0.28 µg/m3 9.69 µg/m3 3.16 µg/m3 0.25 mg/m3 12.98 °C 58.2 % 1,023.07 mbar 2.23 m/s 336.31 Deg 1.51 µg/m3
2022-01-24 11:00 4.53 µg/m3 0.32 µg/m3 9.8 µg/m3 3.2 µg/m3 0.24 mg/m3 12.74 °C 59.87 % 1,023.45 mbar 2.07 m/s 82 Deg 1.01 µg/m3
2022-01-24 10:00 22.35 µg/m3 0.51 µg/m3 10.85 µg/m3 3.49 µg/m3 0.25 mg/m3 12.25 °C 57.03 % 1,023.33 mbar 2.04 m/s 292.53 Deg 8.01 µg/m3
2022-01-24 09:00 42.11 µg/m3 0.7 µg/m3 10.76 µg/m3 3.71 µg/m3 0.24 mg/m3 11.88 °C 54.92 % 1,023.07 mbar 1.75 m/s 287.49 Deg 13.8 µg/m3
2022-01-24 08:00 33.43 µg/m3 0.69 µg/m3 9.98 µg/m3 3.45 µg/m3 0.26 mg/m3 11.41 °C 56.29 % 1,022.92 mbar 1.4 m/s 297.08 Deg 10.26 µg/m3
2022-01-24 07:00 38.87 µg/m3 0.91 µg/m3 10.47 µg/m3 3.92 µg/m3 0.39 mg/m3 11.13 °C 62.02 % 1,022.76 mbar 1.26 m/s 318.98 Deg 13.55 µg/m3
2022-01-24 06:00 19.73 µg/m3 0.9 µg/m3 9.32 µg/m3 3.3 µg/m3 0.2 mg/m3 11.5 °C 52.88 % 1,022.70 mbar 1.01 m/s 280.27 Deg 6.56 µg/m3
2022-01-24 05:00 12.13 µg/m3 0.84 µg/m3 9.04 µg/m3 3.23 µg/m3 0.14 mg/m3 11.67 °C 53.21 % 1,022.93 mbar 0.91 m/s 249.73 Deg 2.86 µg/m3
2022-01-24 04:00 19.7 µg/m3 0.79 µg/m3 8.71 µg/m3 3.15 µg/m3 0.2 mg/m3 11.57 °C 55.69 % 1,023.20 mbar 1.15 m/s 178.46 Deg 0.91 µg/m3
2022-01-24 03:00 14.31 µg/m3 0.76 µg/m3 8.7 µg/m3 3.06 µg/m3 0.19 mg/m3 11.57 °C 54.04 % 1,023.54 mbar 1.04 m/s 289.67 Deg 0.6 µg/m3
2022-01-24 02:00 23.78 µg/m3 0.48 µg/m3 8.82 µg/m3 3.16 µg/m3 0.21 mg/m3 11.56 °C 60.87 % 1,023.72 mbar 0.96 m/s 296.87 Deg 1.23 µg/m3
2022-01-24 01:00 18.98 µg/m3 0.36 µg/m3 8.89 µg/m3 3.26 µg/m3 0.23 mg/m3 11.64 °C 64.06 % 1,023.83 mbar 0.82 m/s 267.07 Deg 0.5 µg/m3
2022-01-24 00:00 20.37 µg/m3 0.34 µg/m3 9.18 µg/m3 3.43 µg/m3 0.25 mg/m3 11.94 °C 62.97 % 1,023.98 mbar 0.96 m/s 241.79 Deg 0.4 µg/m3
2022-01-23 23:00 42.5 µg/m3 0.27 µg/m3 12.13 µg/m3 5.52 µg/m3 0.35 mg/m3 11.65 °C 62.88 % 1,023.86 mbar 1.83 m/s 204.06 Deg 1.64 µg/m3
2022-01-23 22:00 39.03 µg/m3 0.26 µg/m3 11.83 µg/m3 5.44 µg/m3 0.35 mg/m3 11.6 °C 62.79 % 1,023.98 mbar 2.48 m/s 200.18 Deg 1.61 µg/m3
2022-01-23 21:00 33.3 µg/m3 0.22 µg/m3 12.01 µg/m3 5.34 µg/m3 0.35 mg/m3 11.71 °C 61.94 % 1,024.08 mbar 2.44 m/s 198.01 Deg 0.49 µg/m3
2022-01-23 20:00 34.48 µg/m3 0.3 µg/m3 11.86 µg/m3 5.07 µg/m3 0.35 mg/m3 11.86 °C 58.27 % 1,024.16 mbar 2.72 m/s 206.92 Deg 6.38 µg/m3
2022-01-23 19:00 22.33 µg/m3 0.23 µg/m3 9.82 µg/m3 3.78 µg/m3 0.31 mg/m3 12.22 °C 55.91 % 1,024.18 mbar 2.52 m/s 233.73 Deg 2.22 µg/m3
2022-01-23 18:00 10.41 µg/m3 0.22 µg/m3 9.35 µg/m3 3.3 µg/m3 0.3 mg/m3 12.65 °C 55.27 % 1,023.88 mbar 2 m/s 302.18 Deg 1.5 µg/m3
2022-01-23 17:00 5.72 µg/m3 0.21 µg/m3 9.04 µg/m3 3.14 µg/m3 0.25 mg/m3 12.84 °C 56.42 % 1,023.95 mbar 1.88 m/s 312.64 Deg 0.51 µg/m3
2022-01-23 16:00 3.92 µg/m3 0.23 µg/m3 8.26 µg/m3 2.77 µg/m3 0.24 mg/m3 12.94 °C 54.86 % 1,024.13 mbar 2.45 m/s 295.5 Deg 0.93 µg/m3
2022-01-23 15:00 3.45 µg/m3 0.26 µg/m3 8.35 µg/m3 2.76 µg/m3 0.24 mg/m3 12.9 °C 53.73 % 1,024.31 mbar 2.62 m/s 307.98 Deg 1.14 µg/m3
2022-01-23 14:00 2.83 µg/m3 0.32 µg/m3 8.08 µg/m3 2.59 µg/m3 0.21 mg/m3 13.1 °C 44.97 % 1,024.80 mbar 1.91 m/s 296.38 Deg 0.9 µg/m3
2022-01-23 13:00 5.71 µg/m3 0.6 µg/m3 8.11 µg/m3 2.53 µg/m3 0.21 mg/m3 13.21 °C 41.8 % 1,025.54 mbar 1.45 m/s 334.88 Deg 1.73 µg/m3
2022-01-23 12:00 8.28 µg/m3 0.98 µg/m3 8.84 µg/m3 2.9 µg/m3 0.21 mg/m3 12.98 °C 47.88 % 1,026.11 mbar 1.09 m/s 131.53 Deg 2.68 µg/m3
2022-01-23 11:00 6.07 µg/m3 1.07 µg/m3 8.72 µg/m3 2.87 µg/m3 0.25 mg/m3 12.24 °C 55.96 % 1,026.05 mbar 1.01 m/s 174.1 Deg 1.34 µg/m3
2022-01-23 10:00 9.28 µg/m3 1.04 µg/m3 8.59 µg/m3 2.94 µg/m3 0.25 mg/m3 11.89 °C 60.36 % 1,025.50 mbar 1.61 m/s 195.81 Deg 2.06 µg/m3
2022-01-23 09:00 8.55 µg/m3 0.59 µg/m3 8.37 µg/m3 2.84 µg/m3 0.21 mg/m3 11.82 °C 55.87 % 1,024.96 mbar 1.39 m/s 257.73 Deg 2.59 µg/m3
2022-01-23 08:00 14.97 µg/m3 0.5 µg/m3 8.44 µg/m3 2.85 µg/m3 0.19 mg/m3 11.59 °C 61.75 % 1,024.38 mbar 1.33 m/s 279.31 Deg 3.56 µg/m3
2022-01-23 07:00 9.75 µg/m3 0.49 µg/m3 8.09 µg/m3 2.65 µg/m3 0.16 mg/m3 11.43 °C 60.74 % 1,023.84 mbar 1.37 m/s 230.33 Deg 1.19 µg/m3
2022-01-23 06:00 10 µg/m3 0.48 µg/m3 8.17 µg/m3 2.72 µg/m3 0.17 mg/m3 11.57 °C 60.17 % 1,023.30 mbar 1.56 m/s 311.24 Deg 0.46 µg/m3
2022-01-23 05:00 12.29 µg/m3 0.41 µg/m3 8.47 µg/m3 2.95 µg/m3 0.13 mg/m3 11.65 °C 63.59 % 1,023.16 mbar 1.25 m/s 279.99 Deg 0.79 µg/m3
2022-01-23 04:00 28.18 µg/m3 0.41 µg/m3 9.09 µg/m3 3.36 µg/m3 0.2 mg/m3 11.37 °C 72.4 % 1,023.31 mbar 0.78 m/s 221.56 Deg 2.85 µg/m3
2022-01-23 03:00 38.34 µg/m3 0.36 µg/m3 8.96 µg/m3 3.37 µg/m3 0.21 mg/m3 10.85 °C 76.16 % 1,023.60 mbar 0.86 m/s 218.7 Deg 3.99 µg/m3
2022-01-23 02:00 6.7 µg/m3 0.26 µg/m3 8.73 µg/m3 3.23 µg/m3 0.22 mg/m3 10.11 °C 87.35 % 1,023.57 mbar 1.7 m/s 274.18 Deg 0.22 µg/m3
2022-01-23 01:00 23.83 µg/m3 0.49 µg/m3 13.48 µg/m3 6.68 µg/m3 0.36 mg/m3 10.09 °C 90.99 % 1,022.95 mbar 3.36 m/s 298.11 Deg 13.65 µg/m3
2022-01-23 00:00 53.57 µg/m3 0.93 µg/m3 25.21 µg/m3 14.99 µg/m3 0.68 mg/m3 9.64 °C 91.24 % 1,022.87 mbar 1.44 m/s 195.52 Deg 48.82 µg/m3
2022-01-22 23:00 52.4 µg/m3 0.88 µg/m3 24.74 µg/m3 14.69 µg/m3 0.74 mg/m3 9.52 °C 91.42 % 1,022.52 mbar 2.21 m/s 207.76 Deg 46.89 µg/m3
2022-01-22 22:00 60.09 µg/m3 0.83 µg/m3 26.27 µg/m3 15.14 µg/m3 0.74 mg/m3 10.32 °C 89.46 % 1,022.37 mbar 1.43 m/s 199.98 Deg 42.73 µg/m3
2022-01-22 21:00 66.72 µg/m3 0.63 µg/m3 18.98 µg/m3 10.17 µg/m3 0.63 mg/m3 11.17 °C 86.49 % 1,022.08 mbar 1.02 m/s 204.9 Deg 24.04 µg/m3
2022-01-22 20:00 59.63 µg/m3 0.43 µg/m3 12.56 µg/m3 5.85 µg/m3 0.46 mg/m3 11.86 °C 83.21 % 1,021.79 mbar 0.58 m/s 226.48 Deg 14.74 µg/m3
2022-01-22 19:00 34.32 µg/m3 0.45 µg/m3 13.19 µg/m3 6.05 µg/m3 0.36 mg/m3 11.97 °C 82.98 % 1,021.42 mbar 0.4 m/s 285.23 Deg 5.77 µg/m3
2022-01-22 18:00 25.5 µg/m3 0.34 µg/m3 11.59 µg/m3 4.49 µg/m3 0.37 mg/m3 12.8 °C 78.54 % 1,020.98 mbar 0.55 m/s 292.52 Deg 8.97 µg/m3
2022-01-22 17:00 5.85 µg/m3 0.21 µg/m3 9.07 µg/m3 2.9 µg/m3 0.33 mg/m3 13.47 °C 63.38 % 1,020.77 mbar 1.5 m/s 179.23 Deg 1.63 µg/m3
2022-01-22 16:00 13.44 µg/m3 0.28 µg/m3 9.67 µg/m3 3.71 µg/m3 0.3 mg/m3 13.55 °C 64.2 % 1,020.38 mbar 1.87 m/s 340.13 Deg 6.42 µg/m3
2022-01-22 15:00 11.7 µg/m3 0.27 µg/m3 9.43 µg/m3 3.07 µg/m3 0.28 mg/m3 13.77 °C 65.03 % 1,020.11 mbar 1.34 m/s 255.92 Deg 5.79 µg/m3
2022-01-22 14:00 5.4 µg/m3 0.21 µg/m3 8.43 µg/m3 2.65 µg/m3 0.28 mg/m3 13.75 °C 65.97 % 1,020.30 mbar 0.94 m/s 253.38 Deg 2.3 µg/m3
2022-01-22 13:00 7.63 µg/m3 0.22 µg/m3 8.03 µg/m3 2.66 µg/m3 0.3 mg/m3 13.03 °C 72.21 % 1,020.62 mbar 0.82 m/s 182.49 Deg 3.36 µg/m3
2022-01-22 12:00 26.82 µg/m3 0.26 µg/m3 8.33 µg/m3 2.91 µg/m3 0.3 mg/m3 11.73 °C 78.46 % 1,021.16 mbar 1.55 m/s 279 Deg 8.14 µg/m3
2022-01-22 11:00 6.93 µg/m3 0.24 µg/m3 9.11 µg/m3 3.1 µg/m3 0.29 mg/m3 12.83 °C 70.7 % 1,021.10 mbar 2.14 m/s 336.87 Deg 2.08 µg/m3
2022-01-22 10:00 13.3 µg/m3 0.31 µg/m3 9.65 µg/m3 3.43 µg/m3 0.23 mg/m3 13.09 °C 65.72 % 1,020.51 mbar 2.64 m/s 318.99 Deg 6.18 µg/m3
2022-01-22 09:00 18.16 µg/m3 0.24 µg/m3 9.94 µg/m3 3.58 µg/m3 0.23 mg/m3 12.76 °C 65.83 % 1,019.87 mbar 2.21 m/s 305.78 Deg 3.86 µg/m3
2022-01-22 08:00 18.91 µg/m3 0.2 µg/m3 9.71 µg/m3 3.71 µg/m3 0.21 mg/m3 12.42 °C 67.65 % 1,019.53 mbar 2.34 m/s 302 Deg 2.01 µg/m3
2022-01-22 07:00 16.9 µg/m3 0.26 µg/m3 9.66 µg/m3 3.81 µg/m3 0.21 mg/m3 12.1 °C 68.17 % 1,019.25 mbar 2.87 m/s 260.27 Deg 1.76 µg/m3
2022-01-22 06:00 13.2 µg/m3 0.25 µg/m3 9.35 µg/m3 3.72 µg/m3 0.2 mg/m3 11.71 °C 71.65 % 1,018.94 mbar 2.89 m/s 249.53 Deg 3.32 µg/m3
2022-01-22 05:00 8.81 µg/m3 0.14 µg/m3 9.46 µg/m3 3.75 µg/m3 0.14 mg/m3 11.77 °C 69.45 % 1,018.87 mbar 2.92 m/s 242.89 Deg 2.16 µg/m3
2022-01-22 04:00 4.24 µg/m3 0.15 µg/m3 9.6 µg/m3 3.83 µg/m3 0.18 mg/m3 11.79 °C 68.17 % 1,019.12 mbar 2.74 m/s 247.87 Deg 0.45 µg/m3
2022-01-22 03:00 7.85 µg/m3 0.14 µg/m3 9.38 µg/m3 3.8 µg/m3 0.2 mg/m3 11.09 °C 83.18 % 1,019.58 mbar 3.94 m/s 212.43 Deg 0.07 µg/m3
2022-01-22 02:00 6.18 µg/m3 0.23 µg/m3 8.7 µg/m3 3.31 µg/m3 0.21 mg/m3 11.55 °C 78.64 % 1,019.73 mbar 4.33 m/s 227.58 Deg 2.32 µg/m3
2022-01-22 01:00 3.6 µg/m3 0.2 µg/m3 8.33 µg/m3 3.03 µg/m3 0.21 mg/m3 11.83 °C 74.1 % 1,019.74 mbar 3.38 m/s 220.1 Deg -0.06 µg/m3
2022-01-22 00:00 12.33 µg/m3 0.19 µg/m3 8.81 µg/m3 3.37 µg/m3 0.23 mg/m3 11.79 °C 77.69 % 1,020.07 mbar 2.96 m/s 244.56 Deg 1.33 µg/m3
2022-01-21 23:00 20.69 µg/m3 0.27 µg/m3 9.85 µg/m3 4.07 µg/m3 0.27 mg/m3 12.32 °C 73.62 % 1,020.08 mbar 2.41 m/s 225.28 Deg 1.11 µg/m3
2022-01-21 22:00 19.93 µg/m3 0.26 µg/m3 10.01 µg/m3 4.19 µg/m3 0.27 mg/m3 12.4 °C 72.37 % 1,019.73 mbar 2.18 m/s 214.94 Deg 0.64 µg/m3
2022-01-21 21:00 23.21 µg/m3 0.36 µg/m3 9.72 µg/m3 4 µg/m3 0.26 mg/m3 12.51 °C 74.51 % 1,019.70 mbar 2.64 m/s 217.53 Deg 3.59 µg/m3
2022-01-21 20:00 33.22 µg/m3 0.79 µg/m3 10.3 µg/m3 4.1 µg/m3 0.29 mg/m3 12.94 °C 69.52 % 1,019.73 mbar 3.15 m/s 214.68 Deg 11 µg/m3
2022-01-21 19:00 27.01 µg/m3 0.28 µg/m3 10.17 µg/m3 4.12 µg/m3 0.29 mg/m3 12.98 °C 68.14 % 1,019.34 mbar 3.1 m/s 216.43 Deg 5.84 µg/m3
2022-01-21 18:00 24.34 µg/m3 0.26 µg/m3 9.89 µg/m3 3.74 µg/m3 0.27 mg/m3 13.23 °C 62.62 % 1,018.85 mbar 3.48 m/s 233.02 Deg 1.81 µg/m3
2022-01-21 17:00 19.66 µg/m3 0.4 µg/m3 9.77 µg/m3 3.55 µg/m3 0.24 mg/m3 13.77 °C 62.55 % 1,018.66 mbar 4.34 m/s 255.78 Deg 3.75 µg/m3
2022-01-21 16:00 10.39 µg/m3 0.26 µg/m3 9.64 µg/m3 3.39 µg/m3 0.21 mg/m3 14.01 °C 61.75 % 1,018.71 mbar 5.92 m/s 240.46 Deg 1.68 µg/m3
2022-01-21 15:00 8.75 µg/m3 0.28 µg/m3 8.81 µg/m3 3.17 µg/m3 0.21 mg/m3 14.24 °C 60.39 % 1,018.82 mbar 6.27 m/s 233.22 Deg 1.68 µg/m3
2022-01-21 14:00 8.85 µg/m3 0.31 µg/m3 9.13 µg/m3 3.26 µg/m3 0.21 mg/m3 14.27 °C 59.29 % 1,019.09 mbar 6.25 m/s 241.39 Deg 2.19 µg/m3
2022-01-21 13:00 9.33 µg/m3 0.36 µg/m3 9.42 µg/m3 3.41 µg/m3 0.2 mg/m3 14.22 °C 57.89 % 1,019.58 mbar 6.19 m/s 237.82 Deg 2.7 µg/m3
2022-01-21 12:00 11.3 µg/m3 0.48 µg/m3 9.57 µg/m3 3.58 µg/m3 0.21 mg/m3 14.18 °C 60.86 % 1,020.18 mbar 5.35 m/s 220.33 Deg 5.53 µg/m3
2022-01-21 11:00 12.63 µg/m3 0.55 µg/m3 10.03 µg/m3 3.64 µg/m3 0.2 mg/m3 13.94 °C 60.43 % 1,020.47 mbar 4.67 m/s 245.73 Deg 2.73 µg/m3
2022-01-21 10:00 56.43 µg/m3 1.01 µg/m3 19.2 µg/m3 7.1 µg/m3 0.34 mg/m3 13.15 °C 64.92 % 1,020.13 mbar 2.89 m/s 213.33 Deg 38.4 µg/m3
2022-01-21 09:00 109.99 µg/m3 2.42 µg/m3 28.5 µg/m3 14.09 µg/m3 0.66 mg/m3 11.08 °C 75.7 % 1,019.69 mbar 1.87 m/s 188.22 Deg 147.71 µg/m3
2022-01-21 08:00 101.74 µg/m3 2.16 µg/m3 25.7 µg/m3 13.31 µg/m3 0.63 mg/m3 10.38 °C 78.2 % 1,019.68 mbar 2.1 m/s 196.39 Deg 113.37 µg/m3
2022-01-21 07:00 88.86 µg/m3 1.1 µg/m3 19.47 µg/m3 10.43 µg/m3 0.43 mg/m3 10.38 °C 77.43 % 1,019.42 mbar 2.14 m/s 194.82 Deg 32.87 µg/m3
2022-01-21 06:00 76.02 µg/m3 0.61 µg/m3 16.72 µg/m3 8.61 µg/m3 0.27 mg/m3 10.61 °C 77.21 % 1,019.22 mbar 2.17 m/s 192.71 Deg 8.9 µg/m3
2022-01-21 05:00 68.9 µg/m3 0.57 µg/m3 15.65 µg/m3 7.85 µg/m3 0.18 mg/m3 11.01 °C 74.87 % 1,019.36 mbar 1.89 m/s 194.2 Deg 5.37 µg/m3
2022-01-21 04:00 83.74 µg/m3 0.77 µg/m3 14.43 µg/m3 7.08 µg/m3 0.21 mg/m3 11.13 °C 73.94 % 1,019.73 mbar 1.91 m/s 197.73 Deg 29.84 µg/m3
2022-01-21 03:00 54.18 µg/m3 0.9 µg/m3 14.35 µg/m3 7.49 µg/m3 0.2 mg/m3 11.29 °C 73.97 % 1,020.24 mbar 2.05 m/s 192.19 Deg 21.85 µg/m3
2022-01-21 02:00 54.52 µg/m3 0.63 µg/m3 15 µg/m3 8.03 µg/m3 0.21 mg/m3 11.35 °C 75.45 % 1,020.42 mbar 1.97 m/s 193.95 Deg 4.61 µg/m3
2022-01-21 01:00 39.77 µg/m3 0.49 µg/m3 15.35 µg/m3 8.25 µg/m3 0.23 mg/m3 11.62 °C 76.6 % 1,020.84 mbar 2.43 m/s 196.02 Deg 0.65 µg/m3
2022-01-21 00:00 69.51 µg/m3 0.97 µg/m3 30.99 µg/m3 16.06 µg/m3 0.39 mg/m3 11 °C 80.66 % 1,021.31 mbar 1.8 m/s 195.98 Deg 34.45 µg/m3
2022-01-20 23:00 79.98 µg/m3 1.04 µg/m3 33.1 µg/m3 18.88 µg/m3 0.44 mg/m3 11.35 °C 80.43 % 1,021.60 mbar 1.25 m/s 202.52 Deg 38.33 µg/m3
2022-01-20 22:00 72.73 µg/m3 0.63 µg/m3 30.16 µg/m3 17.93 µg/m3 0.4 mg/m3 11.51 °C 75.85 % 1,021.74 mbar 1.56 m/s 199.14 Deg 10.36 µg/m3
2022-01-20 21:00 66.42 µg/m3 0.51 µg/m3 21.67 µg/m3 11.19 µg/m3 0.35 mg/m3 12.11 °C 72.87 % 1,021.68 mbar 1.8 m/s 193.59 Deg 3.99 µg/m3
2022-01-20 20:00 64.21 µg/m3 0.62 µg/m3 18.92 µg/m3 10.03 µg/m3 0.37 mg/m3 12.67 °C 71.84 % 1,021.75 mbar 2.13 m/s 201.68 Deg 10.43 µg/m3
2022-01-20 19:00 75.97 µg/m3 0.62 µg/m3 19.44 µg/m3 9.76 µg/m3 0.39 mg/m3 13.09 °C 71.05 % 1,021.68 mbar 2.28 m/s 198.72 Deg 15.99 µg/m3
2022-01-20 18:00 22.25 µg/m3 0.27 µg/m3 11.81 µg/m3 4.99 µg/m3 0.24 mg/m3 13.65 °C 66.62 % 1,021.61 mbar 3.23 m/s 213.75 Deg 2.43 µg/m3
2022-01-20 17:00 19.43 µg/m3 0.34 µg/m3 10.5 µg/m3 4.09 µg/m3 0.23 mg/m3 13.96 °C 66.02 % 1,021.62 mbar 2.32 m/s 261.88 Deg 4.45 µg/m3
2022-01-20 16:00 18.35 µg/m3 0.4 µg/m3 10.71 µg/m3 4.2 µg/m3 0.21 mg/m3 14.16 °C 63.56 % 1,021.71 mbar 2.54 m/s 259.89 Deg 5.85 µg/m3
2022-01-20 15:00 19.57 µg/m3 0.43 µg/m3 10.79 µg/m3 4.11 µg/m3 0.23 mg/m3 14.37 °C 61.4 % 1,022.10 mbar 2.12 m/s 246.68 Deg 6.78 µg/m3
2022-01-20 14:00 46.98 µg/m3 0.96 µg/m3 10.42 µg/m3 4.05 µg/m3 0.2 mg/m3 14.32 °C 62.01 % 1,022.70 mbar 3.46 m/s 240.97 Deg 45.5 µg/m3
2022-01-20 13:00 33.58 µg/m3 0.71 µg/m3 10.85 µg/m3 4.32 µg/m3 0.22 mg/m3 13.6 °C 71.11 % 1,023.45 mbar 2.78 m/s 251.53 Deg 30.41 µg/m3
2022-01-20 12:00 35.56 µg/m3 0.72 µg/m3 12.25 µg/m3 4.71 µg/m3 0.22 mg/m3 14.21 °C 69.89 % 1,024.40 mbar 2.34 m/s 251.91 Deg 11.62 µg/m3
2022-01-20 11:00 40.62 µg/m3 0.85 µg/m3 11.12 µg/m3 4.53 µg/m3 0.21 mg/m3 14.05 °C 69.18 % 1,024.77 mbar 3.51 m/s 193.69 Deg 20.23 µg/m3
2022-01-20 10:00 99.91 µg/m3 2.66 µg/m3 30.71 µg/m3 15.66 µg/m3 0.68 mg/m3 12.65 °C 82.46 % 1,024.66 mbar 0.89 m/s 189.93 Deg 163.22 µg/m3
2022-01-20 09:00 100.23 µg/m3 2.74 µg/m3 32.33 µg/m3 17.83 µg/m3 0.85 mg/m3 10.58 °C 88.69 % 1,024.60 mbar 1.93 m/s 193.55 Deg 182.48 µg/m3
2022-01-20 08:00 92.43 µg/m3 2.32 µg/m3 25.45 µg/m3 13.69 µg/m3 0.73 mg/m3 10.34 °C 90.07 % 1,024.81 mbar 1.68 m/s 200.72 Deg 153.64 µg/m3
2022-01-20 07:00 69.43 µg/m3 0.88 µg/m3 16.04 µg/m3 7.75 µg/m3 0.41 mg/m3 10.53 °C 89.86 % 1,024.83 mbar 1.33 m/s 191.17 Deg 38.33 µg/m3
2022-01-20 06:00 58.74 µg/m3 0.65 µg/m3 12.32 µg/m3 5.88 µg/m3 0.25 mg/m3 10.68 °C 89.37 % 1,024.71 mbar 1.9 m/s 196.09 Deg 15.87 µg/m3
2022-01-20 05:00 47.46 µg/m3 0.59 µg/m3 12.52 µg/m3 6.15 µg/m3 0.19 mg/m3 11.04 °C 89.77 % 1,024.87 mbar 1.89 m/s 201.7 Deg 12.35 µg/m3
2022-01-20 04:00 53.77 µg/m3 0.59 µg/m3 13.71 µg/m3 7.04 µg/m3 0.32 mg/m3 11.51 °C 90.29 % 1,025.37 mbar 1.42 m/s 208.91 Deg 17.95 µg/m3
2022-01-20 03:00 49.7 µg/m3 0.44 µg/m3 13.64 µg/m3 7.01 µg/m3 0.32 mg/m3 11.37 °C 90.08 % 1,025.85 mbar 1.38 m/s 198.78 Deg 4.05 µg/m3
2022-01-20 02:00 53.27 µg/m3 0.5 µg/m3 15.15 µg/m3 8.13 µg/m3 0.35 mg/m3 11.38 °C 89.9 % 1,026.18 mbar 1.79 m/s 201.98 Deg 14.83 µg/m3
2022-01-20 01:00 44.57 µg/m3 0.46 µg/m3 17.23 µg/m3 9.63 µg/m3 0.36 mg/m3 11.23 °C 89.17 % 1,026.52 mbar 1.74 m/s 199.47 Deg 5.95 µg/m3
2022-01-20 00:00 73.4 µg/m3 0.94 µg/m3 15.27 µg/m3 8.26 µg/m3 0.41 mg/m3 11.43 °C 88.86 % 1,026.88 mbar 1.68 m/s 203.67 Deg 53.81 µg/m3
2022-01-19 23:00 73.72 µg/m3 0.67 µg/m3 14.21 µg/m3 7.44 µg/m3 0.37 mg/m3 11.97 °C 86.43 % 1,027.24 mbar 1.09 m/s 207.33 Deg 23.97 µg/m3
2022-01-19 22:00 64.41 µg/m3 0.6 µg/m3 14 µg/m3 7.28 µg/m3 0.35 mg/m3 12.43 °C 84.62 % 1,027.43 mbar 0.65 m/s 186.81 Deg 15.44 µg/m3
2022-01-19 21:00 67.97 µg/m3 0.6 µg/m3 13.66 µg/m3 7.04 µg/m3 0.32 mg/m3 12.89 °C 83.15 % 1,027.56 mbar 0.69 m/s 196.1 Deg 14.34 µg/m3
2022-01-19 20:00 67.95 µg/m3 0.46 µg/m3 12.49 µg/m3 6.12 µg/m3 0.34 mg/m3 13.2 °C 81.14 % 1,027.50 mbar 0.67 m/s 187.59 Deg 10.95 µg/m3
2022-01-19 19:00 30.15 µg/m3 0.41 µg/m3 11.98 µg/m3 5.76 µg/m3 0.35 mg/m3 12.74 °C 85.46 % 1,027.54 mbar 0.42 m/s 208.69 Deg 5.82 µg/m3
2022-01-19 18:00 37.4 µg/m3 0.41 µg/m3 12.22 µg/m3 5.68 µg/m3 0.37 mg/m3 13.48 °C 82.12 % 1,027.36 mbar 0.62 m/s 249 Deg 7.44 µg/m3
2022-01-19 17:00 11.04 µg/m3 0.44 µg/m3 13.33 µg/m3 5.21 µg/m3 0.31 mg/m3 15.41 °C 63.29 % 1,027.04 mbar 0.57 m/s 230.12 Deg 2.97 µg/m3
2022-01-19 16:00 21.24 µg/m3 0.7 µg/m3 13.48 µg/m3 5.26 µg/m3 0.26 mg/m3 15.69 °C 60.51 % 1,027.13 mbar 0.96 m/s 242.74 Deg 7.22 µg/m3
2022-01-19 15:00 26.28 µg/m3 0.69 µg/m3 13.45 µg/m3 4.97 µg/m3 0.28 mg/m3 16.2 °C 57.66 % 1,027.40 mbar 0.9 m/s 225.53 Deg 7.73 µg/m3
2022-01-19 14:00 49.94 µg/m3 1.19 µg/m3 12.97 µg/m3 5.34 µg/m3 0.25 mg/m3 15.68 °C 52.06 % 1,027.78 mbar 1.66 m/s 185.34 Deg 24.35 µg/m3
2022-01-19 13:00 70.35 µg/m3 1.55 µg/m3 14.73 µg/m3 6.43 µg/m3 0.25 mg/m3 15.37 °C 53.24 % 1,028.65 mbar 1.59 m/s 185.33 Deg 49.23 µg/m3
2022-01-19 12:00 27.27 µg/m3 0.99 µg/m3 12.83 µg/m3 4.76 µg/m3 0.26 mg/m3 15.04 °C 57.74 % 1,029.18 mbar 0.67 m/s 202.98 Deg 8.23 µg/m3
2022-01-19 11:00 24.25 µg/m3 0.96 µg/m3 13.99 µg/m3 5.33 µg/m3 0.31 mg/m3 14.4 °C 64.44 % 1,029.46 mbar 0.4 m/s 260.13 Deg 5.78 µg/m3
2022-01-19 10:00 72.13 µg/m3 1.99 µg/m3 23.9 µg/m3 11.38 µg/m3 0.75 mg/m3 13.32 °C 75.15 % 1,029.42 mbar 0 m/s 209.95 Deg 67.54 µg/m3
2022-01-19 09:00 121.78 µg/m3 4.15 µg/m3 37.67 µg/m3 19.11 µg/m3 1.09 mg/m3 12.03 °C 81.96 % 1,028.93 mbar 0.99 m/s 204.3 Deg 270.57 µg/m3
2022-01-19 08:00 81.63 µg/m3 1.85 µg/m3 21.27 µg/m3 11.12 µg/m3 0.57 mg/m3 12.26 °C 78.86 % 1,028.63 mbar 0.63 m/s 228.62 Deg 80.98 µg/m3
2022-01-19 07:00 71.56 µg/m3 1.5 µg/m3 17.79 µg/m3 9.87 µg/m3 0.59 mg/m3 12 °C 78.77 % 1,028.18 mbar 0.36 m/s 236.93 Deg 40.05 µg/m3
2022-01-19 06:00 71.71 µg/m3 1.26 µg/m3 19.02 µg/m3 10.58 µg/m3 0.34 mg/m3 11.67 °C 77.77 % 1,027.95 mbar 0.99 m/s 205.4 Deg 38.03 µg/m3
2022-01-19 05:00 61.26 µg/m3 0.9 µg/m3 16.91 µg/m3 9.31 µg/m3 0.22 mg/m3 11.36 °C 79.02 % 1,027.91 mbar 1.72 m/s 199.47 Deg 30.12 µg/m3
2022-01-19 04:00 51.2 µg/m3 0.64 µg/m3 15.99 µg/m3 8.71 µg/m3 0.29 mg/m3 11.17 °C 78.64 % 1,028.13 mbar 1.98 m/s 201.01 Deg 16.07 µg/m3
2022-01-19 03:00 50.81 µg/m3 0.61 µg/m3 15.41 µg/m3 8.29 µg/m3 0.31 mg/m3 11.07 °C 78.96 % 1,028.27 mbar 2.29 m/s 200.89 Deg 11.69 µg/m3
2022-01-19 02:00 48.93 µg/m3 0.5 µg/m3 16.47 µg/m3 8.98 µg/m3 0.32 mg/m3 11.09 °C 79.33 % 1,028.42 mbar 2.17 m/s 202.26 Deg 4.35 µg/m3
2022-01-19 01:00 58.01 µg/m3 0.6 µg/m3 19.4 µg/m3 11.24 µg/m3 0.39 mg/m3 10.84 °C 79.23 % 1,028.62 mbar 2.23 m/s 199.29 Deg 11.38 µg/m3
2022-01-19 00:00 63.12 µg/m3 0.67 µg/m3 22.41 µg/m3 13.43 µg/m3 0.45 mg/m3 10.7 °C 79.33 % 1,028.81 mbar 2.21 m/s 202.71 Deg 13.31 µg/m3
2022-01-18 23:00 71.08 µg/m3 0.79 µg/m3 28.77 µg/m3 18.18 µg/m3 0.52 mg/m3 10.52 °C 80.49 % 1,029.17 mbar 2.03 m/s 199.69 Deg 28.85 µg/m3
2022-01-18 22:00 71.06 µg/m3 0.67 µg/m3 27.99 µg/m3 16.02 µg/m3 0.56 mg/m3 10.64 °C 80.38 % 1,028.98 mbar 2.16 m/s 202.12 Deg 26.59 µg/m3
2022-01-18 21:00 77.76 µg/m3 0.88 µg/m3 27.49 µg/m3 15.63 µg/m3 0.68 mg/m3 11.25 °C 78.3 % 1,028.95 mbar 2.11 m/s 197.23 Deg 41.85 µg/m3
2022-01-18 20:00 87.53 µg/m3 1.07 µg/m3 27.83 µg/m3 14.56 µg/m3 0.74 mg/m3 12.17 °C 75.88 % 1,028.67 mbar 1.63 m/s 201.25 Deg 53.52 µg/m3
2022-01-18 19:00 40.68 µg/m3 0.31 µg/m3 12.33 µg/m3 5.44 µg/m3 0.34 mg/m3 13.41 °C 67.86 % 1,028.19 mbar 0.85 m/s 315.49 Deg 5.35 µg/m3
2022-01-18 18:00 17.24 µg/m3 0.16 µg/m3 11.13 µg/m3 4.56 µg/m3 0.31 mg/m3 13.63 °C 65.25 % 1,027.59 mbar 1.05 m/s 319.26 Deg 2.13 µg/m3
2022-01-18 17:00 9.5 µg/m3 0.2 µg/m3 11.23 µg/m3 4.58 µg/m3 0.27 mg/m3 14.2 °C 62.54 % 1,027.14 mbar 1.62 m/s 260.24 Deg 2.2 µg/m3
2022-01-18 16:00 8.96 µg/m3 0.22 µg/m3 11.01 µg/m3 4.42 µg/m3 0.26 mg/m3 14.63 °C 58.85 % 1,026.97 mbar 1.76 m/s 336.16 Deg 2.14 µg/m3
2022-01-18 15:00 8.19 µg/m3 0.23 µg/m3 11.16 µg/m3 4.45 µg/m3 0.36 mg/m3 14.71 °C 59.42 % 1,026.80 mbar 1.68 m/s 324.12 Deg 2.48 µg/m3
2022-01-18 14:00 4.44 µg/m3 0.21 µg/m3 11.03 µg/m3 4.53 µg/m3 0.24 mg/m3 14.58 °C 59.72 % 1,026.86 mbar 1.78 m/s 338.34 Deg 1.44 µg/m3
2022-01-18 13:00 5.09 µg/m3 0.19 µg/m3 11.09 µg/m3 4.45 µg/m3 0.26 mg/m3 14.46 °C 61.64 % 1,027.26 mbar 2.15 m/s 339.84 Deg 1.81 µg/m3
2022-01-18 12:00 10.65 µg/m3 0.23 µg/m3 11.48 µg/m3 4.72 µg/m3 0.24 mg/m3 14.56 °C 62.79 % 1,027.66 mbar 1.7 m/s 320.9 Deg 3.39 µg/m3
2022-01-18 11:00 10.54 µg/m3 0.31 µg/m3 11.41 µg/m3 4.6 µg/m3 0.25 mg/m3 14.07 °C 65.92 % 1,027.63 mbar 1.88 m/s 310.27 Deg 13.46 µg/m3
2022-01-18 10:00 19.93 µg/m3 0.17 µg/m3 11.7 µg/m3 4.8 µg/m3 0.26 mg/m3 13.55 °C 68.84 % 1,026.92 mbar 1.74 m/s 290.79 Deg 1.91 µg/m3
2022-01-18 09:00 44.57 µg/m3 0.24 µg/m3 14.02 µg/m3 5.72 µg/m3 0.34 mg/m3 12.99 °C 72.52 % 1,026.26 mbar 1.6 m/s 258.96 Deg 5.1 µg/m3
2022-01-18 08:00 24.92 µg/m3 0.2 µg/m3 11.45 µg/m3 4.72 µg/m3 0.27 mg/m3 13.13 °C 71.17 % 1,025.69 mbar 1.79 m/s 285.8 Deg 2.83 µg/m3
2022-01-18 07:00 10.19 µg/m3 0.15 µg/m3 10.38 µg/m3 4.35 µg/m3 0.28 mg/m3 13.18 °C 71.32 % 1,025.18 mbar 1.96 m/s 313.41 Deg 2.75 µg/m3
2022-01-18 06:00 3.99 µg/m3 0.11 µg/m3 9.58 µg/m3 3.81 µg/m3 0.24 mg/m3 12.95 °C 71.67 % 1,024.59 mbar 2.02 m/s 317.57 Deg 0.89 µg/m3
2022-01-18 05:00 3.41 µg/m3 0.09 µg/m3 9.93 µg/m3 4.14 µg/m3 0.17 mg/m3 12.11 °C 75.35 % 1,024.29 mbar 1.8 m/s 261.42 Deg -0.13 µg/m3
2022-01-18 04:00 1.91 µg/m3 0.13 µg/m3 9.86 µg/m3 4.09 µg/m3 0.23 mg/m3 12.32 °C 74.31 % 1,024.38 mbar 2.1 m/s 250.09 Deg -0.19 µg/m3
2022-01-18 03:00 10.4 µg/m3 0.15 µg/m3 10.27 µg/m3 4.39 µg/m3 0.25 mg/m3 12.34 °C 77 % 1,024.34 mbar 2.21 m/s 225.58 Deg 0.61 µg/m3
2022-01-18 02:00 2.59 µg/m3 0.12 µg/m3 10.57 µg/m3 4.53 µg/m3 0.25 mg/m3 12.82 °C 75.49 % 1,024.32 mbar 1.9 m/s 260.73 Deg 0.06 µg/m3
2022-01-18 01:00 0.91 µg/m3 0.15 µg/m3 10.14 µg/m3 4.29 µg/m3 0.24 mg/m3 12.96 °C 77.16 % 1,024.23 mbar 2.52 m/s 253.23 Deg 0.02 µg/m3
2022-01-18 00:00 5.12 µg/m3 0.15 µg/m3 10.16 µg/m3 4.32 µg/m3 0.26 mg/m3 13.11 °C 79.64 % 1,024.21 mbar 2.5 m/s 251.46 Deg 0.08 µg/m3
2022-01-17 23:00 12.11 µg/m3 0.17 µg/m3 10.21 µg/m3 4.31 µg/m3 0.26 mg/m3 13.09 °C 77.48 % 1,024.21 mbar 2.09 m/s 233.61 Deg 1.4 µg/m3
2022-01-17 22:00 4.42 µg/m3 0.15 µg/m3 9.98 µg/m3 4.12 µg/m3 0.25 mg/m3 13.11 °C 75.11 % 1,024.18 mbar 2.97 m/s 260.54 Deg 0.23 µg/m3
2022-01-17 21:00 5.08 µg/m3 0.15 µg/m3 10.12 µg/m3 4.17 µg/m3 0.25 mg/m3 13.42 °C 75.05 % 1,024.12 mbar 2.96 m/s 264.78 Deg 0.05 µg/m3
2022-01-17 20:00 8.65 µg/m3 0.17 µg/m3 10.26 µg/m3 4.26 µg/m3 0.26 mg/m3 13.36 °C 72.69 % 1,023.66 mbar 3.15 m/s 264.52 Deg 0.12 µg/m3

It is to be noted that the data is provisional and subject to quality assurance procedures. For validated data kindly refer your request to contact.air@era.org.mt